SHT21X EGJB-EGLL

Flight info

Callsign SHT21X
Flight time 0h 37m
Altitude 24000
Route ORIST1F ORIST L982 ROXOG ROXOG1H
Aircraft A319/M-SDE3FGHIRWY/LB1

Departure

Time 2026-05-04 11:59
Airport Guernsey Airport (EGJB)

Arrival

Time 2026-05-04 12:36
Airport London Heathrow Airport (EGLL)
Time Latitude Longitude Altitude Speed Heading
2026-05-04 11:29 49.43253 -2.59620 328 ft 0 kts 177°
2026-05-04 11:47 49.43258 -2.59620 328 ft 2 kts 177°
2026-05-04 11:48 49.43277 -2.59621 324 ft 3 kts 177°
2026-05-04 11:48 49.43297 -2.59622 326 ft 3 kts 177°
2026-05-04 11:48 49.43317 -2.59623 327 ft 3 kts 177°
2026-05-04 11:48 49.43336 -2.59624 328 ft 3 kts 166°
2026-05-04 11:49 49.43352 -2.59635 325 ft 3 kts 128°
2026-05-04 11:49 49.43360 -2.59661 325 ft 3 kts 95°
2026-05-04 11:49 49.43360 -2.59690 324 ft 2 kts 82°
2026-05-04 11:49 49.43359 -2.59699 324 ft 0 kts 81°
2026-05-04 11:52 49.43359 -2.59698 324 ft 1 kts 81°
2026-05-04 11:53 49.43361 -2.59648 325 ft 7 kts 89°
2026-05-04 11:53 49.43362 -2.59599 328 ft 7 kts 87°
2026-05-04 11:53 49.43366 -2.59490 332 ft 8 kts 88°
2026-05-04 11:53 49.43369 -2.59403 332 ft 9 kts 87°
2026-05-04 11:55 49.43414 -2.59196 334 ft 0 kts
2026-05-04 11:57 49.43433 -2.59196 334 ft 4 kts 360°
2026-05-04 11:57 49.43470 -2.59199 334 ft 6 kts 357°
2026-05-04 11:58 49.43514 -2.59206 334 ft 5 kts 338°
2026-05-04 11:58 49.43523 -2.59248 334 ft 3 kts 271°
2026-05-04 11:58 49.43517 -2.59543 332 ft 69 kts 268°
2026-05-04 11:58 49.43483 -2.60715 315 ft 146 kts 267°
2026-05-04 11:59 49.43429 -2.62317 932 ft 148 kts 267°
2026-05-04 11:59 49.43377 -2.63913 1707 ft 154 kts 267°
2026-05-04 11:59 49.43331 -2.65631 2113 ft 171 kts 267°
2026-05-04 11:59 49.43281 -2.67550 2556 ft 185 kts 267°
2026-05-04 12:00 49.43226 -2.69546 3176 ft 189 kts 267°
2026-05-04 12:00 49.43314 -2.71561 3830 ft 193 kts 287°
2026-05-04 12:00 49.44078 -2.73251 4472 ft 197 kts 322°
2026-05-04 12:00 49.45336 -2.74022 5152 ft 197 kts 356°
2026-05-04 12:01 49.46673 -2.73636 5819 ft 199 kts 22°
2026-05-04 12:01 49.48023 -2.72799 6175 ft 221 kts 22°
2026-05-04 12:02 49.58453 -2.66442 10191 ft 297 kts 23°
2026-05-04 12:03 49.60390 -2.65261 11005 ft 302 kts 23°
2026-05-04 12:03 49.62356 -2.64057 11814 ft 306 kts 23°
2026-05-04 12:03 49.64351 -2.62832 12625 ft 311 kts 24°
2026-05-04 12:03 49.66375 -2.61587 13433 ft 315 kts 24°
2026-05-04 12:04 49.68375 -2.60255 14166 ft 319 kts 31°
2026-05-04 12:04 49.70215 -2.58275 14888 ft 320 kts 44°
2026-05-04 12:04 49.71735 -2.55701 15108 ft 338 kts 58°
2026-05-04 12:04 49.73017 -2.52523 15324 ft 356 kts 62°
2026-05-04 12:05 49.74328 -2.49211 15867 ft 364 kts 61°
2026-05-04 12:05 49.75665 -2.45863 16518 ft 368 kts 60°
2026-05-04 12:05 49.77018 -2.42494 17198 ft 371 kts 60°
2026-05-04 12:05 49.78391 -2.39081 17877 ft 375 kts 60°
2026-05-04 12:06 49.79772 -2.35635 18519 ft 378 kts 60°
2026-05-04 12:06 49.81164 -2.32148 19086 ft 383 kts 60°
2026-05-04 12:06 49.82568 -2.28622 19642 ft 387 kts 60°
2026-05-04 12:06 49.83993 -2.25050 20181 ft 392 kts 60°
2026-05-04 12:07 49.85433 -2.21433 20732 ft 397 kts 61°
2026-05-04 12:07 49.86890 -2.17759 21270 ft 402 kts 61°
2026-05-04 12:07 49.88357 -2.14050 21791 ft 406 kts 61°
2026-05-04 12:07 49.89848 -2.10281 22329 ft 411 kts 61°
2026-05-04 12:08 49.91349 -2.06478 22850 ft 415 kts 61°
2026-05-04 12:08 49.92864 -2.02636 23363 ft 420 kts 61°
2026-05-04 12:08 49.94396 -1.98749 23811 ft 424 kts 62°
2026-05-04 12:08 49.95938 -1.94835 23984 ft 425 kts 61°
2026-05-04 12:09 49.97465 -1.90962 24030 ft 416 kts 61°
2026-05-04 12:09 49.99155 -1.87332 24033 ft 415 kts 51°
2026-05-04 12:09 50.01193 -1.84236 24036 ft 417 kts 40°
2026-05-04 12:09 50.03593 -1.81681 24013 ft 418 kts 30°
2026-05-04 12:10 50.06186 -1.79613 24043 ft 419 kts 27°
2026-05-04 12:10 50.08793 -1.77561 24042 ft 420 kts 27°
2026-05-04 12:10 50.11383 -1.75471 24029 ft 419 kts 31°
2026-05-04 12:10 50.13778 -1.72917 24035 ft 418 kts 41°
2026-05-04 12:11 50.16011 -1.70007 24034 ft 418 kts 41°
2026-05-04 12:11 50.18241 -1.67100 24027 ft 417 kts 41°
2026-05-04 12:11 50.20473 -1.64199 24037 ft 417 kts 41°
2026-05-04 12:11 50.22705 -1.61311 24039 ft 416 kts 41°
2026-05-04 12:12 50.24959 -1.58482 24042 ft 416 kts 36°
2026-05-04 12:12 50.27450 -1.56157 24040 ft 417 kts 26°
2026-05-04 12:12 50.30153 -1.54501 24038 ft 417 kts 17°
2026-05-04 12:12 50.32920 -1.53166 24031 ft 417 kts 17°
2026-05-04 12:13 50.35656 -1.51837 24034 ft 416 kts 17°
2026-05-04 12:14 50.54999 -1.41855 23313 ft 420 kts 28°
2026-05-04 12:15 50.57556 -1.39662 22764 ft 417 kts 29°
2026-05-04 12:15 50.60099 -1.37479 22199 ft 415 kts 29°
2026-05-04 12:15 50.62626 -1.35317 21660 ft 412 kts 29°
2026-05-04 12:15 50.65114 -1.33185 21137 ft 409 kts 29°
2026-05-04 12:16 50.67600 -1.31046 20624 ft 406 kts 29°
2026-05-04 12:16 50.70075 -1.28911 20112 ft 403 kts 29°
2026-05-04 12:16 50.72521 -1.26788 19606 ft 399 kts 30°
2026-05-04 12:16 50.74945 -1.24683 19132 ft 395 kts 30°
2026-05-04 12:17 50.77321 -1.22571 18634 ft 388 kts 32°
2026-05-04 12:17 50.79599 -1.20354 18136 ft 380 kts 34°
2026-05-04 12:17 50.81796 -1.18078 17595 ft 374 kts 35°
2026-05-04 12:17 50.83936 -1.15795 17063 ft 368 kts 36°
2026-05-04 12:18 50.86047 -1.13537 16538 ft 363 kts 35°
2026-05-04 12:18 50.88136 -1.11324 16021 ft 360 kts 34°
2026-05-04 12:18 50.90224 -1.09135 15529 ft 358 kts 34°
2026-05-04 12:18 50.92297 -1.06976 15032 ft 356 kts 34°
2026-05-04 12:19 50.94347 -1.04850 14547 ft 354 kts 34°
2026-05-04 12:19 50.96402 -1.02723 14066 ft 352 kts 33°
2026-05-04 12:19 50.98451 -1.00600 13561 ft 350 kts 33°
2026-05-04 12:19 51.00428 -0.98367 13081 ft 346 kts 41°
2026-05-04 12:20 51.02093 -0.95655 12824 ft 343 kts 49°
2026-05-04 12:20 51.03679 -0.92826 12553 ft 341 kts 49°
2026-05-04 12:20 51.05260 -0.90023 12292 ft 339 kts 49°
2026-05-04 12:20 51.06830 -0.87244 12035 ft 338 kts 49°
2026-05-04 12:21 51.08396 -0.84467 11775 ft 336 kts 49°
2026-05-04 12:21 51.09951 -0.81701 11528 ft 334 kts 49°
2026-05-04 12:21 51.11479 -0.78978 11280 ft 325 kts 49°
2026-05-04 12:21 51.12965 -0.76323 11026 ft 317 kts 49°
2026-05-04 12:22 51.14414 -0.73731 10780 ft 310 kts 49°
2026-05-04 12:22 51.15825 -0.71204 10529 ft 301 kts 48°
2026-05-04 12:22 51.17201 -0.68740 10287 ft 293 kts 49°
2026-05-04 12:22 51.18538 -0.66335 10047 ft 287 kts 49°
2026-05-04 12:23 51.19850 -0.63970 9789 ft 281 kts 49°
2026-05-04 12:23 51.21134 -0.61657 9525 ft 276 kts 49°
2026-05-04 12:23 51.22390 -0.59391 9256 ft 270 kts 49°
2026-05-04 12:23 51.23629 -0.57158 8994 ft 266 kts 49°
2026-05-04 12:24 51.24844 -0.54974 8768 ft 260 kts 49°
2026-05-04 12:24 51.26035 -0.52832 8556 ft 256 kts 49°
2026-05-04 12:24 51.27197 -0.50726 8350 ft 255 kts 49°
2026-05-04 12:24 51.28365 -0.48610 8147 ft 253 kts 49°
2026-05-04 12:25 51.29527 -0.46499 8031 ft 253 kts 49°
2026-05-04 12:25 51.30682 -0.44402 8020 ft 252 kts 49°
2026-05-04 12:25 51.31701 -0.42141 8023 ft 251 kts 69°
2026-05-04 12:25 51.32078 -0.39444 8029 ft 250 kts 84°
2026-05-04 12:26 51.32258 -0.36671 8024 ft 250 kts 86°
2026-05-04 12:26 51.32418 -0.33901 8023 ft 250 kts 86°
2026-05-04 12:26 51.32571 -0.31141 7880 ft 248 kts 86°
2026-05-04 12:26 51.32721 -0.28399 7595 ft 247 kts 86°
2026-05-04 12:27 51.32866 -0.25668 7311 ft 246 kts 86°
2026-05-04 12:27 51.33011 -0.22943 7031 ft 245 kts 86°
2026-05-04 12:27 51.33154 -0.20237 6739 ft 243 kts 86°
2026-05-04 12:27 51.33293 -0.17548 6461 ft 242 kts 86°
2026-05-04 12:28 51.33428 -0.14865 6150 ft 241 kts 86°
2026-05-04 12:28 51.33565 -0.12203 5833 ft 240 kts 86°
2026-05-04 12:28 51.33760 -0.09563 5388 ft 239 kts 76°
2026-05-04 12:28 51.34595 -0.07308 4964 ft 238 kts 43°
2026-05-04 12:29 51.36046 -0.06143 4695 ft 235 kts 10°
2026-05-04 12:29 51.37684 -0.05915 4569 ft 237 kts
2026-05-04 12:29 51.39331 -0.05832 4420 ft 236 kts
2026-05-04 12:29 51.40973 -0.05767 4342 ft 236 kts
2026-05-04 12:30 51.42609 -0.05706 4259 ft 231 kts
2026-05-04 12:30 51.44154 -0.05651 4172 ft 214 kts
2026-05-04 12:30 51.45565 -0.05638 4077 ft 198 kts 354°
2026-05-04 12:30 51.46814 -0.06412 4020 ft 193 kts 322°
2026-05-04 12:31 51.47617 -0.08089 4032 ft 190 kts 290°
2026-05-04 12:31 51.47818 -0.10200 4023 ft 193 kts 269°
2026-05-04 12:31 51.47813 -0.12349 3860 ft 192 kts 269°
2026-05-04 12:31 51.47809 -0.14486 3650 ft 190 kts 269°
2026-05-04 12:32 51.47807 -0.16615 3377 ft 190 kts 269°
2026-05-04 12:32 51.47804 -0.20854 2868 ft 190 kts 270°
2026-05-04 12:32 51.47802 -0.22989 2613 ft 192 kts 271°
2026-05-04 12:33 51.47800 -0.25095 2354 ft 185 kts 271°
2026-05-04 12:33 51.47797 -0.27099 2123 ft 175 kts 271°
2026-05-04 12:33 51.47795 -0.29030 1888 ft 170 kts 270°
2026-05-04 12:33 51.47792 -0.30927 1647 ft 170 kts 271°
2026-05-04 12:34 51.47789 -0.32826 1425 ft 170 kts 271°
2026-05-04 12:34 51.47785 -0.34719 1197 ft 169 kts 271°
2026-05-04 12:34 51.47781 -0.36583 965 ft 161 kts 271°
2026-05-04 12:34 51.47777 -0.38255 752 ft 142 kts 271°
2026-05-04 12:35 51.47771 -0.39808 542 ft 136 kts 271°
2026-05-04 12:35 51.47774 -0.41310 377 ft 134 kts 271°
2026-05-04 12:35 51.47770 -0.42794 206 ft 133 kts 273°
2026-05-04 12:35 51.47764 -0.44253 88 ft 120 kts 269°
2026-05-04 12:36 51.47763 -0.45355 86 ft 73 kts 270°
2026-05-04 12:36 51.47742 -0.45803 84 ft 32 kts 245°
2026-05-04 12:36 51.47604 -0.46041 86 ft 21 kts 234°
2026-05-04 12:36 51.47592 -0.46273 86 ft 22 kts 270°
2026-05-04 12:37 51.47590 -0.46532 86 ft 24 kts 268°
2026-05-04 12:37 51.47586 -0.46818 86 ft 27 kts 269°
2026-05-04 12:37 51.47581 -0.47134 90 ft 29 kts 269°
2026-05-04 12:37 51.47580 -0.47445 88 ft 26 kts 270°
2026-05-04 12:38 51.47580 -0.47748 86 ft 28 kts 270°
2026-05-04 12:38 51.47580 -0.47950 88 ft 26 kts 270°
2026-05-04 12:38 51.47578 -0.48184 89 ft 19 kts 269°
2026-05-04 12:38 51.47577 -0.48397 86 ft 17 kts 270°
2026-05-04 12:39 51.47508 -0.48476 86 ft 15 kts 179°
2026-05-04 12:39 51.47360 -0.48472 86 ft 16 kts 180°
2026-05-04 12:39 51.47238 -0.48471 87 ft 19 kts 179°
2026-05-04 12:39 51.47164 -0.48471 86 ft 15 kts 180°
2026-05-04 12:40 51.47057 -0.48472 88 ft 16 kts 180°
2026-05-04 12:40 51.46962 -0.48471 89 ft 11 kts 179°
2026-05-04 12:40 51.46892 -0.48476 86 ft 9 kts 202°
2026-05-04 12:40 51.46877 -0.48579 86 ft 11 kts 270°
2026-05-04 12:41 51.46877 -0.48662 86 ft 4 kts 266°
2026-05-04 12:41 51.46847 -0.48681 86 ft 7 kts 185°
2026-05-04 12:41 51.46827 -0.48683 86 ft 1 kts 180°
2026-05-04 12:41 51.46825 -0.48683 86 ft 0 kts 180°